NIEUW!!! Volg onze weer- en natuurfoto's op Instagram @ weerstationmaaseik.be

WS Maaseik 1 Meer informatie WS Maaseik 1


WS Maaseik 2 Meer informatie WS Maaseik 2


Regen radar Meer informatie rain snow radar


Bezoek onze andere website:

Vorige versie
weerstation Maaseik


Bezoek ook eens deze sites:

Weerstation Geleen



Het weer levert geen direct gevaar op.    Er zijn geen waarschuwingen afgegeven.

15 daagse weersverwachting Hallein (AT)

  • Overzicht
  • Per uur
  • 15 dagen
  • Extra
  • Vergelijk
  • Kaarten
  • Dagkaart
  • Meer »
  • Info
  • Statistieken
  • Directe link
    Temp 6h Neerslag Wind  
 07:40     17:03    Daglengte: 9:23 Vandaag
13:00
1.4 mm
1
19:00
18.8 mm
4
 07:38     17:04    Daglengte: 9:26 Morgen
01:00
20.1 mm
4
07:00
26.9 mm
2
13:00
25.3 mm
5
19:00
22.4 mm
3
 07:37     17:06    Daglengte: 9:29 Zaterdag 30 Jan
01:00
31.2 mm
3
07:00
25.1 mm
2
13:00
 
1
19:00
28.6 mm
1
 07:36     17:07    Daglengte: 9:31 Zondag 31 Jan
01:00
43.3 mm
1
Locatie info
Region: Salzburg
Latitude: 47.6815°N
Longitude: 13.0926°E
447 masl
Postcode: 5400
Temp/Neerslag /Baro Onweer/DauwpuntSneeuw
    Temp Baro 1h Neerslag Dauwpunt Wind UV BewolkingSneeuw  
 07:40     17:03    Daglengte: 9:23 Vandaag
10:00
Voelt als: 1.9°
1011.2 hPa
30%
0.5°
1
Windvlaag: 1.4 m/s
87%48 cm
11:00
Voelt als: 2.2°
1009.6 hPa 0.3 mm
28%
1.1°
1
Windvlaag: 1.4 m/s
89%47 cm
12:00
Voelt als: 3.5°
1008.0 hPa 0.4 mm
72%
1.1°
1
Windvlaag: 1.6 m/s
90%46 cm
13:00
Voelt als: 3.3°
1006.7 hPa 0.7 mm
81%
2.1°
1
Windvlaag: 1.6 m/s
91%44 cm
14:00
Voelt als: 3.2°
1005.7 hPa 2.0 mm
82%
2.2°
1
Windvlaag: 1.4 m/s
91%43 cm
15:00
Voelt als: 2.0°
1005.6 hPa 2.9 mm
82%
2.4°
2
Windvlaag: 0 m/s
91%42 cm
16:00
Voelt als: 2.0°
1005.1 hPa 3.4 mm
82%
2.6°
2
Windvlaag: 0.3 m/s
91%41 cm
17:00
Voelt als: 2.2°
1004.7 hPa 3.6 mm
82%
3.0°
2
Windvlaag: 0.8 m/s
91%40 cm
18:00
Voelt als: 2.1°
1004.2 hPa 3.7 mm
82%
3.5°
4
Windvlaag: -3.5 m/s
90%39 cm
19:00
Voelt als: 2.4°
1003.8 hPa 3.2 mm
82%
3.6°
4
Windvlaag: -1.8 m/s
86%38 cm
20:00
Voelt als: 3.2°
1004.1 hPa 3.3 mm
82%
3.6°
4
Windvlaag: -0.9 m/s
88%37 cm warningclass
21:00
Voelt als: 4.4°
1004.5 hPa 3.2 mm
82%
4.4°
5
Windvlaag: -1.3 m/s
88%36 cm warningclass
22:00
Voelt als: 4.2°
1005.0 hPa 3.3 mm
82%
4.4°
5
Windvlaag: -2.1 m/s
86%35 cm
23:00
Voelt als: 3.9°
1005.2 hPa 3.4 mm
82%
4.4°
5
Windvlaag: -1.8 m/s
84%34 cm
 07:38     17:04    Daglengte: 9:26 Morgen
00:00
Voelt als: 4.1°
1005.9 hPa 3.6 mm
82%
4.2°
4
Windvlaag: -1.9 m/s
83%33 cm
01:00
Voelt als: 4.2°
1006.1 hPa 3.2 mm
82%
4.6°
4
Windvlaag: -1.8 m/s
87%32 cm
02:00
Voelt als: 4.5°
1006.3 hPa 3.2 mm
82%
4.4°
3
Windvlaag: -1.5 m/s
72%31 cm
03:00
Voelt als: 4.7°
1005.8 hPa 4.2 mm
82%
3.7°
2
Windvlaag: -0.3 m/s
74%31 cm
04:00
Voelt als: 4.4°
1004.8 hPa 4.4 mm
82%
3.3°
2
Windvlaag: -0.5 m/s
73%30 cm
05:00
Voelt als: 3.8°
1004.2 hPa 4.8 mm
82%
2.6°
2
Windvlaag: -0.5 m/s
83%30 cm
06:00
Voelt als: 4.2°
1003.1 hPa 5.3 mm
82%
3.0°
2
Windvlaag: 1 m/s
80%29 cm
07:00
Voelt als: 4.1°
1002.2 hPa 4.9 mm
82%
3.0°
2
Windvlaag: 2.1 m/s
90%29 cm
08:00
Voelt als: 4.1°
1001.3 hPa 3.4 mm
82%
3.3°
2
Windvlaag: 1.9 m/s
90%28 cm
09:00
Voelt als: 4.0°
1000.4 hPa 3.8 mm
82%
3.3°
2
Windvlaag: 1.2 m/s
90%28 cm
10:00
Voelt als: 3.5°
999.8 hPa 4.1 mm
82%
3.3°
2
Windvlaag: -0.4 m/s
91%27 cm
11:00
Voelt als: 5.3°
1000.3 hPa 4.4 mm
82%
3.3°
2
Windvlaag: 1.1 m/s
91%26 cm
12:00
Voelt als: 4.4°
1001.0 hPa 4.9 mm
82%
3.7°
3
Windvlaag: 1.9 m/s
91%26 cm
13:00
Voelt als: 3.4°
1001.2 hPa 4.6 mm
82%
4.6°
5
Windvlaag: -1.2 m/s
90%25 cm
14:00
Voelt als: 3.4°
1001.3 hPa 6.4 mm
74%
3.8°
5
Windvlaag: -1.9 m/s
88%25 cm
15:00
Voelt als: 3.7°
1001.7 hPa
31%
2.9°
5
Windvlaag: -2.4 m/s
86%24 cm
16:00
Voelt als: 3.2°
1001.8 hPa
28%
2.2°
4
Windvlaag: -1.3 m/s
88%24 cm
17:00
Voelt als: 2.7°
1002.0 hPa 6.7 mm
74%
1.2°
4
Windvlaag: -1.7 m/s
81%23 cm
18:00
Voelt als: 3.0°
1002.2 hPa 4.7 mm
81%
1.5°
3
Windvlaag: -1.7 m/s
81%23 cm
19:00
Voelt als: 2.5°
1002.4 hPa 4.6 mm
82%
1.8°
3
Windvlaag: -1.4 m/s
69%23 cm
20:00
Voelt als: 2.3°
1002.4 hPa 4.5 mm
80%
1.8°
3
Windvlaag: -1.3 m/s
83%22 cm
21:00
Voelt als: 2.4°
1002.4 hPa 4.6 mm
82%
1.3°
3
Windvlaag: -0.1 m/s
84%22 cm
22:00
Voelt als: 1.8°
1002.4 hPa 4.9 mm
82%
1.6°
2
Windvlaag: 0.3 m/s
87%22 cm
23:00
Voelt als: 1.8°
1002.7 hPa 5.1 mm
82%
1.5°
3
Windvlaag: -0.8 m/s
88%22 cm
 07:37     17:06    Daglengte: 9:29 Zaterdag 30 Jan
00:00
Voelt als: 1.7°
1003.6 hPa 7.2 mm
82%
1.8°
3
Windvlaag: -1.1 m/s
90%22 cm
01:00
Voelt als: 1.6°
1004.0 hPa 4.9 mm
82%
1.8°
3
Windvlaag: -0.7 m/s
83%22 cm
02:00
Voelt als: 1.8°
1004.1 hPa 4.8 mm
80%
1.6°
3
Windvlaag: 0 m/s
82%22 cm
03:00
Voelt als: 1.7°
1004.0 hPa 6.9 mm
81%
1.2°
3
Windvlaag: -0.3 m/s
62%21 cm
04:00
Voelt als: 1.1°
1004.1 hPa 6.7 mm
100%
1.0°
2
Windvlaag: -0.3 m/s
72%21 cm
05:00
Voelt als: 1.7°
1003.7 hPa
99%
1.3°
2
Windvlaag: 0.2 m/s
86%21 cm
06:00
Voelt als: 2.0°
1003.3 hPa 6.7 mm
100%
1.4°
1
Windvlaag: -0 m/s
78%21 cm
07:00
Voelt als: 1.8°
1002.8 hPa
100%
0.6°
2
Windvlaag: -1.2 m/s
61%21 cm
08:00
Voelt als: 1.1°
1002.6 hPa
38%
0.4°
2
Windvlaag: -1.3 m/s
85%21 cm
09:00
Voelt als: 2.0°
1002.7 hPa
21%
0.7°
2
Windvlaag: -0.9 m/s
84%21 cm
10:00
Voelt als: 2.6°
1002.2 hPa
21%
1.4°
2
Windvlaag: -0.7 m/s
87%20 cm
11:00
Voelt als: 3.4°
1001.4 hPa
21%
2.0°
2
Windvlaag: -0.6 m/s
73%20 cm
12:00
Voelt als: 5.1°
1000.0 hPa
21%
1.8°
2
Windvlaag: -0.7 m/s
97%20 cm
13:00
Voelt als: 4.8°
998.6 hPa
22%
2.1°
1
Windvlaag: -0.9 m/s
97%19 cm
14:00
Voelt als: 4.2°
997.8 hPa
22%
2.0°
2
Windvlaag: -0.7 m/s
94%19 cm
15:00
Voelt als: 4.9°
997.2 hPa 6.7 mm
25%
1.8°
1
Windvlaag: 0.9 m/s
92%19 cm
16:00
Voelt als: 3.5°
996.7 hPa 6.8 mm
81%
2.1°
1
Windvlaag: 0.7 m/s
98%18 cm
17:00
Voelt als: 3.8°
996.3 hPa 5.0 mm
97%
1.8°
1
Windvlaag: 0.1 m/s
99%18 cm
18:00
Voelt als: 3.4°
995.8 hPa 5.1 mm
97%
1.8°
1
Windvlaag: -0 m/s
99%18 cm
19:00
Voelt als: 3.3°
995.3 hPa 5.1 mm
98%
1.8°
1
Windvlaag: 0.2 m/s
99%18 cm
20:00
Voelt als: 2.9°
995.6 hPa 7.0 mm
100%
1.8°
1
Windvlaag: -0.2 m/s
100%18 cm
21:00
Voelt als: 2.5°
995.7 hPa 7.0 mm
100%
1.8°
1
Windvlaag: -0 m/s
100%18 cm
22:00
Voelt als: 2.9°
995.8 hPa 7.1 mm
100%
1.9°
1
Windvlaag: 0.2 m/s
100%18 cm
23:00
Voelt als: 2.9°
996.2 hPa 7.5 mm
100%
1.9°
1
Windvlaag: -0.1 m/s
100%18 cm
 07:36     17:07    Daglengte: 9:31 Zondag 31 Jan
00:00
Voelt als: 2.8°
996.3 hPa 7.3 mm
100%
2.0°
1
Windvlaag: 0 m/s
100%18 cm
01:00
Voelt als: 2.6°
996.4 hPa 7.2 mm
100%
2.0°
1
Windvlaag: 0.2 m/s
100%18 cm
02:00
Voelt als: 2.4°
996.9 hPa 11.6 mm
100%
1.8°
1
Windvlaag: 2.2 m/s
100%18 cm
03:00
Voelt als: 1.2°
996.9 hPa 11.5 mm
100%
1.6°
1
Windvlaag: 4 m/s
100%19 cm
04:00
Voelt als: 0.9°
996.9 hPa
100%
1.4°
1
Windvlaag: 2.4 m/s
100%19 cm
05:00
Voelt als: 0.9°
997.0 hPa 11.8 mm
95%
1.2°
1
Windvlaag: 1.9 m/s
99%19 cm
06:00
Voelt als: 0.4°
997.3 hPa 12.0 mm
85%
1.0°
1
Windvlaag: 2.2 m/s
100%20 cm
07:00
Voelt als: 0.1°
997.8 hPa
91%
0.9°
1
Windvlaag: 0.3 m/s
100%20 cm
Temp/Neerslag /Baro Onweer/DauwpuntSneeuw
    Temp Baro Neerslag Dauwpunt Wind BewolkingSneeuw  
 07:40     17:03    Daglengte: 9:23 Vandaag
10:00
Voelt als: 1.9°
1011.2 hPa   0.5°
1
87%48 cm
13:00
Voelt als: 3.3°
1006.7 hPa 1.4 mm 2.1°
1
91%44 cm
16:00
Voelt als: 2.0°
1005.1 hPa 8.2 mm 2.6°
2
91%41 cm
19:00
Voelt als: 2.4°
1003.8 hPa 10.5 mm 3.6°
4
86%38 cm
22:00
Voelt als: 4.2°
1005.0 hPa 9.8 mm 4.4°
5
86%35 cm
 07:38     17:04    Daglengte: 9:26 Morgen
01:00
Voelt als: 4.2°
1006.1 hPa 10.3 mm 4.6°
4
87%32 cm
04:00
Voelt als: 4.4°
1004.8 hPa 11.8 mm 3.3°
2
73%30 cm
07:00
Voelt als: 4.1°
1002.2 hPa 15.0 mm 3.0°
2
90%29 cm
10:00
Voelt als: 3.5°
999.8 hPa 11.3 mm 3.3°
2
91%27 cm
13:00
Voelt als: 3.4°
1001.2 hPa 14.0 mm 4.6°
5
90%25 cm
16:00
Voelt als: 3.2°
1001.8 hPa 6.4 mm 2.2°
4
88%24 cm
19:00
Voelt als: 2.5°
1002.4 hPa 16.0 mm 1.8°
3
69%23 cm
22:00
Voelt als: 1.8°
1002.4 hPa 14.0 mm 1.6°
2
87%22 cm
 07:37     17:06    Daglengte: 9:29 Zaterdag 30 Jan
01:00
Voelt als: 1.6°
1004.0 hPa 17.2 mm 1.8°
3
83%22 cm
04:00
Voelt als: 1.1°
1004.1 hPa 18.4 mm 1.0°
2
72%21 cm
07:00
Voelt als: 1.8°
1002.8 hPa 6.7 mm 0.6°
2
61%21 cm
10:00
Voelt als: 2.6°
1002.2 hPa   1.4°
2
87%20 cm
13:00
Voelt als: 4.8°
998.6 hPa   2.1°
1
97%19 cm
16:00
Voelt als: 3.5°
996.7 hPa 13.5 mm 2.1°
1
98%18 cm
19:00
Voelt als: 3.3°
995.3 hPa 15.1 mm 1.8°
1
99%18 cm
22:00
Voelt als: 2.9°
995.8 hPa 21.2 mm 1.9°
1
100%18 cm
 07:36     17:07    Daglengte: 9:31 Zondag 31 Jan
01:00
Voelt als: 2.6°
996.4 hPa 22.1 mm 2.0°
1
100%18 cm
04:00
Voelt als: 0.9°
996.9 hPa 23.1 mm 1.4°
1
100%19 cm
07:00
Voelt als: 0.1°
997.8 hPa 35.8 mm 0.9°
1
100%20 cm warningclass
10:00
Voelt als: 1.6°
1001.3 hPa 57.1 mm 1.2°
1
91%
13:00
Voelt als: 2.0°
1001.9 hPa 58.3 mm 1.1°
1
91%
16:00
Voelt als: 1.2°
1001.8 hPa 58.5 mm 0.6°
1
89%
19:00
Voelt als: 0.1°
1001.9 hPa 58.8 mm 0.2°
1
86% warningclass
22:00
Voelt als: 0.6°
1000.5 hPa 58.8 mm 0.3°
1
80%
 07:34     17:09    Daglengte: 9:35 Maandag 01 Feb
01:00
Voelt als: 1.3°
998.9 hPa 58.8 mm 0.5°
1
74%
04:00
Voelt als: -1.5°
996.9 hPa 58.8 mm -2.0°
1
39% warningclass
07:00
-2°
Voelt als: -4.3°
995.0 hPa 58.8 mm -4.5°
2
5% warningclass
10:00
Voelt als: 1.6°
995.1 hPa 58.8 mm -2.3°
1
47%
13:00
995.2 hPa 58.9 mm -0.9°
1
88%
16:00
Voelt als: 5.1°
997.2 hPa 60.0 mm 0.2°
1
88%
19:00
Voelt als: 3.2°
999.5 hPa 63.2 mm 1.0°
1
88%
22:00
Voelt als: 3.9°
1001.8 hPa 67.0 mm 0.8°
1
90%
 07:33     17:10    Daglengte: 9:37 Dinsdag 02 Feb
01:00
Voelt als: 4.3°
1004.1 hPa 68.6 mm 0.5°
1
92%
04:00
Voelt als: 2.8°
1008.2 hPa 70.4 mm 1.3°
1
92%
07:00
Voelt als: 1.0°
1012.3 hPa 71.7 mm 1.9°
1
92%
10:00
Voelt als: 2.3°
1014.4 hPa 71.9 mm 2.0°
1
91%
13:00
1016.4 hPa 72.0 mm 2.0°
1
91%
16:00
Voelt als: 3.0°
1015.3 hPa 72.0 mm 1.4°
1
91%
19:00
Voelt als: 2.7°
1014.4 hPa 72.2 mm 0.7°
1
92%
22:00
Voelt als: 1.6°
1012.8 hPa 72.7 mm 0.7°
2
92%
 07:32     17:12    Daglengte: 9:40 Woensdag 03 Feb
01:00
Voelt als: 0.5°
1011.1 hPa 72.8 mm 0.5°
2
92%
04:00
Voelt als: 1.8°
1009.7 hPa 72.8 mm 0.4°
2
90%
07:00
Voelt als: 3.2°
1008.4 hPa 74.1 mm 0.5°
1
89%
10:00
Voelt als: 5.1°
1007.9 hPa 74.4 mm 1.7°
1
89%
13:00
Voelt als: 7.2°
1007.4 hPa 74.4 mm 3.1°
1
88%
16:00
Voelt als: 5.8°
1008.1 hPa 74.4 mm 2.4°
1
67%
19:00
Voelt als: 4.0°
1008.9 hPa 74.4 mm 1.2°
1
47%
22:00
Voelt als: 3.7°
1010.7 hPa 74.4 mm 0.6°
1
60%
 07:30     17:13    Daglengte: 9:43 Donderdag 04 Feb
01:00
Voelt als: 3.0°
1012.5 hPa 74.4 mm 0.1°
1
73%
04:00
Voelt als: 2.9°
1013.3 hPa 74.4 mm 0.4°
1
61%
07:00
Voelt als: 2.7°
1014.0 hPa 148.7 mm 0.7°
1
49%
13:00
Voelt als: 7.5°
1012.5 hPa 148.7 mm 2.6°
1
1%
19:00
Voelt als: 3.7°
1009.3 hPa 148.7 mm 0.2°
1
87%
 07:29     17:15    Daglengte: 9:46 Vrijdag 05 Feb
01:00
Voelt als: 0.1°
1007.0 hPa 148.7 mm -0.8°
2
84%
07:00
Voelt als: 2.3°
1008.0 hPa 148.7 mm -2.5°
2
88%
13:00
14°
1009.3 hPa 148.7 mm 0.9°
1
75%
19:00
Voelt als: 4.3°
1010.6 hPa 159.2 mm 0.5°
1
43%
 07:27     17:17    Daglengte: 9:50 Zaterdag 06 Feb
01:00
Voelt als: 0.2°
1011.2 hPa 171.7 mm -1.8°
2
29%
07:00
Voelt als: 0.2°
1011.2 hPa 184.3 mm -2.4°
2
35%
13:00
1007.3 hPa 191.6 mm 5.0°
1
1%
19:00
Voelt als: 3.0°
1006.9 hPa 192.1 mm 3.5°
1
1%
 07:26     17:18    Daglengte: 9:52 Zondag 07 Feb
01:00
Voelt als: 1.7°
1004.2 hPa 192.3 mm 2.2°
1
1%
07:00
-1°
1016.5 hPa 1.2 mm -1.6°
0
83%
13:00
Voelt als: 2.0°
1016.1 hPa 0.6 mm 0.7°
1
87%
19:00
-0°
Voelt als: -0.2°
1017.4 hPa 0.3 mm -1.2°
1
88%
 07:24     17:20    Daglengte: 9:56 Maandag 08 Feb
01:00
-1°
Voelt als: -1.5°
1018.4 hPa 0.2 mm -2.6°
0
82%
07:00
-2°
Voelt als: -2.4°
1018.5 hPa 0.9 mm -3.7°
1
78%
13:00
Voelt als: 1.2°
1017.8 hPa 0.7 mm -0.4°
1
79%
19:00
-1°
Voelt als: -1.3°
1019.9 hPa 0.6 mm -2.3°
0
84%
 07:23     17:21    Daglengte: 9:58 Dinsdag 09 Feb
01:00
-3°
1021.7 hPa 0.6 mm -4.0°
0
79%
07:00
-4°
Voelt als: -4.1°
1021.9 hPa 0.5 mm -5.1°
1
75%
13:00
Voelt als: 1.1°
1020.5 hPa 0.4 mm -0.9°
1
75%
19:00
-2°
1022.0 hPa 0.5 mm -3.1°
0
79%
 07:21     17:23    Daglengte: 10:02 Woensdag 10 Feb
01:00
-3°
Voelt als: -4.2°
1022.7 hPa 0.7 mm -4.7°
1
80%
07:00
-4°
Voelt als: -5.0°
1022.3 hPa 1.3 mm -5.3°
1
74%
13:00
Voelt als: 1.8°
1020.6 hPa 0.9 mm -0.9°
1
70%
19:00
-1°
Voelt als: -1.5°
1022.0 hPa 0.2 mm -2.9°
1
72%
 07:20     17:25    Daglengte: 10:05 Donderdag 11 Feb
01:00
-3°
Voelt als: -4.2°
1023.0 hPa 1.2 mm -4.6°
1
67%
07:00
-3°
Voelt als: -5.0°
1022.7 hPa 0.4 mm -5.3°
1
69%
13:00
Voelt als: 1.9°
1020.8 hPa 0.6 mm -1.1°
1
70%
19:00
-2°
Voelt als: -2.2°
1022.2 hPa 0.6 mm -3.3°
1
75%
 07:18     17:26    Daglengte: 10:08 Vrijdag 12 Feb
01:00
-3°
Voelt als: -4.3°
1022.8 hPa 0.5 mm -4.8°
1
69%
07:00
-3°
Voelt als: -4.5°
1021.9 hPa 0.7 mm -5.1°
1
72%
  CAPE Lifted Index Hail Supercell Tornado SRH 3km CL BTM PRES CL TOP PRES Swiss DWD icon SMHI TS
 07:40     17:03    Daglengte: 9:23 Vandaag
10:00 0 J/kg 7.0 K 0 % 0 % 0 % 0 m²/s² 0 0 7.96 3
11:00 0 J/kg 6.1 K 0 % 0 % 0 % 0 m²/s² 0 0 7 3
12:00 0 J/kg 5.9 K 0 % 0 % 0 % 0 m²/s² 0 0 6.17 3
13:00 0 J/kg 5.1 K 0 % 0 % 0 % 0 m²/s² 0 0 5.34 61
14:00 0 J/kg 4.4 K 0 % 0 % 0 % 0 m²/s² 0 0 4.55 61
15:00 0 J/kg 4.0 K 0 % 0 % 0 % 0 m²/s² 0 0 4.21 61
16:00 0 J/kg 2.5 K 0 % 0 % 0 % 0 m²/s² 0 0 2.65 63
17:00 0 J/kg 0.9 K 0 % 0 % 0 % 0 m²/s² 0 0 1.11 61
18:00 0 J/kg -1.2 K 0 % 0 % 0 % 0 m²/s² 0 0 -1.05 61
19:00 0 J/kg -1.3 K 0 % 0 % 0 % 0 m²/s² 0 0 -1.06 80
20:00 0 J/kg -0.4 K 0 % 0 % 0 % 0 m²/s² 0 0 0.14 95
21:00 0 J/kg 0.2 K 0 % 0 % 0 % 0 m²/s² 0 0 0.47 95
22:00 0 J/kg 0.9 K 0 % 0 % 0 % 0 m²/s² 0 0 1.05 80
23:00 0 J/kg 2.0 K 0 % 0 % 0 % 0 m²/s² 0 0 2.21 80
 07:38     17:04    Daglengte: 9:26 Morgen
00:00 0 J/kg 2.2 K 0 % 0 % 0 % 0 m²/s² 0 0 2.47 80
01:00 0 J/kg 2.9 K 0 % 0 % 0 % 0 m²/s² 0 0 4.16 80
02:00 0 J/kg 3.2 K 0 % 0 % 0 % 0 m²/s² 0 0 4.91 80
03:00 10 J/kg 3.7 K 0 % 0 % 0 % 0 m²/s² 0 0 6.16 80
04:00 3 J/kg 3.6 K 0 % 0 % 0 % 0 m²/s² 0 0 6.69 3
05:00 10 J/kg 4.2 K 0 % 0 % 0 % 0 m²/s² 0 0 6.9 61
06:00 0 J/kg 3.2 K 0 % 0 % 0 % 0 m²/s² 0 0 3.74 61
07:00 0 J/kg 3.1 K 0 % 0 % 0 % 0 m²/s² 0 0 4.36 61
08:00 0 J/kg 3.4 K 0 % 0 % 0 % 0 m²/s² 0 0 4.51 61
09:00 0 J/kg 3.0 K 0 % 0 % 0 % 0 m²/s² 0 0 3.27 61
10:00 0 J/kg 2.5 K 0 % 0 % 0 % 0 m²/s² 0 0 2.74 61
11:00 0 J/kg 3.0 K 0 % 0 % 0 % 0 m²/s² 0 0 3.21 61
12:00 0 J/kg 3.1 K 0 % 0 % 0 % 0 m²/s² 0 0 3.31 61
13:00 0 J/kg 1.5 K 0 % 0 % 0 % 0 m²/s² 0 0 1.71 80
14:00 0 J/kg 1.1 K 0 % 0 % 0 % 0 m²/s² 0 0 1.37 3
15:00 3 J/kg 3.3 K 0 % 0 % 0 % 0 m²/s² 0 0 5.73 3
16:00 16 J/kg 3.7 K 0 % 0 % 0 % 0 m²/s² 0 0 6.04 3
17:00 42 J/kg 2.3 K 0 % 0 % 0 % 0 m²/s² 0 0 3.68 80
18:00 27 J/kg 1.1 K 0 % 0 % 0 % 0 m²/s² 0 0 2.63 3
19:00 13 J/kg 0.9 K 0 % 0 % 0 % 0 m²/s² 0 0 2.7 80
20:00 2 J/kg 0.9 K 0 % 0 % 0 % 0 m²/s² 0 0 1.53 80
21:00 0 J/kg -0.1 K 0 % 0 % 0 % 0 m²/s² 0 0 0.38 61
22:00 0 J/kg 1.0 K 0 % 0 % 0 % 0 m²/s² 0 0 1.69 61
23:00 0 J/kg 0.0 K 0 % 0 % 0 % 0 m²/s² 0 0 0.3 61
 07:37     17:06    Daglengte: 9:29 Zaterdag 30 Jan
00:00 0 J/kg 0.8 K 0 % 0 % 0 % 0 m²/s² 0 0 1.1 61
01:00 0 J/kg 1.7 K 0 % 0 % 0 % 0 m²/s² 0 0 2.63 80
02:00 0 J/kg 3.1 K 0 % 0 % 0 % 0 m²/s² 0 0 4.75 80
03:00 0 J/kg 3.6 K 0 % 0 % 0 % 0 m²/s² 0 0 5.94 3
04:00 16 J/kg 4.2 K 0 % 0 % 0 % 0 m²/s² 0 0 6.96 80
05:00 13 J/kg 6.1 K 0 % 0 % 0 % 0 m²/s² 0 0 7.57 2
06:00 2 J/kg 7.5 K 0 % 0 % 0 % 0 m²/s² 0 0 8.55 80
07:00 0 J/kg 8.6 K 0 % 0 % 0 % 0 m²/s² 0 0 9.89 66
08:00 0 J/kg 10.1 K 0 % 0 % 0 % 0 m²/s² 0 0 12.32 2
09:00 0 J/kg 11.4 K 0 % 0 % 0 % 0 m²/s² 0 0 14.19 1
10:00 1 J/kg 12.1 K 0 % 0 % 0 % 0 m²/s² 0 0 15.88 1
11:00 7 J/kg 12.3 K 0 % 0 % 0 % 0 m²/s² 0 0 15.63 3
12:00 4 J/kg 11.6 K 0 % 0 % 0 % 0 m²/s² 0 0 14 3
13:00 10 J/kg 10.9 K 0 % 0 % 0 % 0 m²/s² 0 0 12.46 3
14:00 7 J/kg 10.1 K 0 % 0 % 0 % 0 m²/s² 0 0 10.43 3
15:00 0 J/kg 8.3 K 0 % 0 % 0 % 0 m²/s² 0 0 8.63 3
16:00 0 J/kg 7.6 K 0 % 0 % 0 % 0 m²/s² 0 0 7.84 3
17:00 0 J/kg 6.3 K 0 % 0 % 0 % 0 m²/s² 0 0 6.6 61
18:00 0 J/kg 5.9 K 0 % 0 % 0 % 0 m²/s² 0 0 6.14 61
19:00 0 J/kg 5.6 K 0 % 0 % 0 % 0 m²/s² 0 0 5.93 61
20:00 0 J/kg 4.9 K 0 % 0 % 0 % 0 m²/s² 0 0 5.32 61
21:00 0 J/kg 5.1 K 0 % 0 % 0 % 0 m²/s² 0 0 5.43 61
22:00 1 J/kg 4.8 K 0 % 0 % 0 % 0 m²/s² 0 0 5.13 61
23:00 1 J/kg 4.8 K 0 % 0 % 0 % 0 m²/s² 0 0 5.13 61
 07:36     17:07    Daglengte: 9:31 Zondag 31 Jan
00:00 1 J/kg 4.4 K 0 % 0 % 0 % 0 m²/s² 0 0 4.94 61
01:00 1 J/kg 5.1 K 0 % 0 % 0 % 0 m²/s² 0 0 5.52 61
02:00 0 J/kg 4.9 K 0 % 0 % 0 % 0 m²/s² 0 0 5.26 61
03:00 0 J/kg 4.7 K 0 % 0 % 0 % 0 m²/s² 0 0 5.09 61
04:00 0 J/kg 4.8 K 0 % 0 % 0 % 0 m²/s² 0 0 5.19 3
05:00 0 J/kg 5.3 K 0 % 0 % 0 % 0 m²/s² 0 0 5.75 3
06:00 0 J/kg 6.0 K 0 % 0 % 0 % 0 m²/s² 0 0 6.39 3
07:00 0 J/kg 6.8 K 0 % 0 % 0 % 0 m²/s² 0 0 7.28 3
Temp Baro Wind Neerslag
  EWN Forecast EWN WRFDA DWD ICON FMI HIRLAM MET Norway GFS
 07:40     17:03    Daglengte: 9:23 Vandaag
10:00 2.9° 1011.2 hPa 1.3 m/s 0.0 mm 3.7° 1007.2 hPa 2.0 m/s 2.1 mm 1.7° 1012.1 hPa 1.3 m/s -0.4 mm 3.3° 1011.5 hPa 1.6 m/s 0.0 mm 3.1° 1010.7 hPa 1.1 m/s 3.6° 1011.9 hPa 2.5 m/s
13:00 4.4° 1006.7 hPa 1.4 m/s 1.4 mm 4.2° 1003.0 hPa 3.5 m/s 4.1 mm 4.3° 1007.1 hPa 1.3 m/s 0.2 mm 4.5° 1007.0 hPa 1.9 m/s 0.0 mm 4.4° 1007.0 hPa 1.2 m/s 4.5° 1007.9 hPa 2.1 m/s
16:00 3.9° 1005.1 hPa 2.1 m/s 8.2 mm 5.5° 999.9 hPa 8.9 m/s 24.8 mm 3.3° 1005.7 hPa 1.8 m/s 5.7 mm 4.5° 1005.5 hPa 2.0 m/s 0.0 mm 3.4° 1006.0 hPa 0.8 m/s 4.8° 1005.4 hPa 2.9 m/s
19:00 5.6° 1003.8 hPa 4.3 m/s 10.5 mm 5.9° 1000.4 hPa 9.2 m/s 41.2 mm 4.3° 1005.8 hPa 1.3 m/s 5.3 mm 7.9° 1004.8 hPa 7.8 m/s 0.0 mm 4.1° 1003.8 hPa 1.4 m/s 5.7° 1005.1 hPa 2.9 m/s
22:00 7.1° 1005.0 hPa 4.6 m/s 9.8 mm 5.6° 1001.7 hPa 8.2 m/s 49.8 mm 7.0° 1005.3 hPa 3.3 m/s 3.1 mm 8.0° 1005.2 hPa 6.6 m/s 0.0 mm 6.7° 1005.2 hPa 1.7 m/s 5.5° 1005.7 hPa 2.8 m/s
 07:38     17:04    Daglengte: 9:26 Morgen
01:00 6.7° 1006.1 hPa 3.6 m/s 10.3 mm 5.2° 1003.8 hPa 7.6 m/s 57.4 mm 6.8° 1005.9 hPa 2.3 m/s 2.2 mm 8.1° 1006.4 hPa 6.0 m/s 0.0 mm 5.3° 1006.8 hPa 1.6 m/s 5.7° 1007.2 hPa 2.7 m/s
04:00 5.9° 1004.8 hPa 1.9 m/s 11.8 mm 4.4° 1002.7 hPa 3.1 m/s 59.7 mm 5.9° 1005.5 hPa 1.1 m/s 1.4 mm 7.1° 1004.8 hPa 2.8 m/s 0.0 mm 5.4° 1004.9 hPa 0.9 m/s 5.6° 1006.2 hPa 2.2 m/s
07:00 5.4° 1002.2 hPa 1.8 m/s 15.0 mm 4.8° 999.8 hPa 4.1 m/s 61.9 mm 4.6° 1002.7 hPa 1.6 m/s 3.7 mm 6.7° 1002.2 hPa 1.9 m/s 0.0 mm 5.6° 1002.3 hPa 1.0 m/s 5.6° 1003.8 hPa 2.3 m/s
10:00 5.1° 999.8 hPa 2.0 m/s 11.3 mm 4.8° 997.9 hPa 4.7 m/s 64.4 mm 4.8° 1001.5 hPa 2.2 m/s 4.2 mm 6.4° 998.8 hPa 1.5 m/s 0.0 mm 4.9° 999.8 hPa 1.4 m/s 5.4° 1001.9 hPa 2.4 m/s
13:00 6.6° 1001.2 hPa 4.9 m/s 14.0 mm 5.0° 995.3 hPa 7.3 m/s 75.0 mm 6.8° 1001.8 hPa 5.1 m/s 1.9 mm 8.7° 998.6 hPa 7.7 m/s 0.0 mm 4.5° 1001.9 hPa 1.1 m/s 5.4° 1001.3 hPa 2.5 m/s
16:00 6.2° 1001.8 hPa 4.2 m/s 6.4 mm 4.7° 998.3 hPa 8.1 m/s 91.1 mm 5.8° 1003.0 hPa 4.0 m/s 0.1 mm 7.5° 999.5 hPa 5.2 m/s 0.0 mm 6.1° 1002.2 hPa 1.9 m/s 5.2° 1002.0 hPa 2.3 m/s
19:00 5.2° 1002.4 hPa 3.5 m/s 16.0 mm 4.1° 998.1 hPa 5.5 m/s 91.9 mm 4.7° 1002.5 hPa 2.4 m/s 0.9 mm 7.5° 998.4 hPa 5.1 m/s 0.0 mm 5.1° 1003.4 hPa 1.8 m/s 4.4° 1003.1 hPa 1.5 m/s
22:00 4.0° 1002.4 hPa 2.4 m/s 14.0 mm 3.8° 998.6 hPa 6.5 m/s 92.7 mm 3.8° 1002.5 hPa 1.2 m/s 1.1 mm 7.2° 998.4 hPa 4.0 m/s 0.0 mm 2.7° 1003.2 hPa 0.9 m/s 3.8° 1004.1 hPa 2.0 m/s
 07:37     17:06    Daglengte: 9:29 Zaterdag 30 Jan
01:00 4.0° 1004.0 hPa 2.6 m/s 17.2 mm 3.4° 1000.0 hPa 6.6 m/s 95.0 mm 2.9° 1004.7 hPa 1.3 m/s 3.3 mm 6.2° 999.2 hPa 4.4 m/s 0.0 mm 4.0° 1005.2 hPa 1.5 m/s 3.6° 1004.9 hPa 1.9 m/s
04:00 3.3° 1004.1 hPa 2.2 m/s 18.4 mm 3.4° 999.5 hPa 5.9 m/s 96.8 mm 3.2° 1004.9 hPa 1.2 m/s 0.9 mm 2.9° 1004.4 hPa 1.7 m/s 3.5° 1005.1 hPa 1.6 m/s
07:00 3.4° 1002.8 hPa 1.8 m/s 6.7 mm 3.9° 999.0 hPa 5.5 m/s 97.8 mm 2.9° 1003.8 hPa 0.6 m/s 0.5 mm 3.4° 1002.9 hPa 1.3 m/s 1.7° 1003.9 hPa 2.1 m/s
10:00 4.5° 1002.2 hPa 2.2 m/s 0.0 mm 3.6° 998.4 hPa 5.9 m/s 98.1 mm 4.2° 1002.2 hPa 2.1 m/s 0.0 mm 4.6° 1002.7 hPa 0.5 m/s 4.4° 1002.3 hPa 1.4 m/s
13:00 5.7° 998.6 hPa 1.5 m/s 0.0 mm 4.0° 996.6 hPa 2.8 m/s 98.3 mm 6.6° 998.6 hPa 0.9 m/s 0.0 mm 5.7° 998.4 hPa 1.2 m/s 5.7° 999.0 hPa 0.5 m/s
16:00 3.9° 996.7 hPa 1.0 m/s 13.5 mm 3.5° 993.6 hPa 1.6 m/s 98.4 mm 5.4° 996.4 hPa 0.5 m/s 0.0 mm 3.8° 996.8 hPa 0.8 m/s 4.4° 997.3 hPa 0.6 m/s
19:00 3.3° 995.3 hPa 0.8 m/s 15.1 mm 2.7° 992.3 hPa 1.7 m/s 98.8 mm 3.6° 995.6 hPa 0.4 m/s 0.4 mm 3.4° 995.5 hPa 0.5 m/s 3.6° 997.6 hPa 1.6 m/s
22:00 3.0° 995.8 hPa 0.8 m/s 21.2 mm 2.3° 991.0 hPa 1.3 m/s 100.0 mm 3.1° 996.1 hPa 0.9 m/s 1.0 mm 3.1° 996.8 hPa 0.5 m/s 3.8° 997.9 hPa 1.9 m/s
 07:36     17:07    Daglengte: 9:31 Zondag 31 Jan
01:00 2.7° 996.4 hPa 0.8 m/s 22.1 mm 1.0° 991.0 hPa 0.9 m/s 101.9 mm 3.1° 996.8 hPa 1.9 m/s 1.9 mm 2.8° 998.0 hPa 0.5 m/s 3.7° 997.8 hPa 1.4 m/s
04:00 1.9° 996.9 hPa 1.2 m/s 23.1 mm -1.0° 991.6 hPa 1.9 m/s 103.2 mm 2.9° 995.6 hPa 1.6 m/s 0.5 mm 2.0° 999.0 hPa 0.8 m/s 3.7° 997.0 hPa 1.4 m/s
07:00 1.1° 997.8 hPa 1.2 m/s 35.8 mm -1.9° 993.4 hPa 1.9 m/s 106.9 mm 2.1° 996.1 hPa 1.2 m/s 0.3 mm 1.3° 1000.0 hPa 1.0 m/s 3.8° 998.1 hPa 1.1 m/s
10:00 1.9° 1001.3 hPa 0.9 m/s 57.1 mm 1.7° 1001.5 hPa 0.9 m/s 4.0° 999.0 hPa 0.8 m/s 57.1 mm
13:00 2.1° 1001.9 hPa 0.8 m/s 58.3 mm 1.9° 1002.2 hPa 0.8 m/s 4.0° 998.7 hPa 0.6 m/s 58.3 mm
16:00 1.4° 1001.8 hPa 0.8 m/s 58.5 mm 1.1° 1002.2 hPa 0.9 m/s 3.9° 997.9 hPa 0.3 m/s 58.5 mm
19:00 0.7° 1001.9 hPa 0.9 m/s 58.8 mm 0.4° 1002.2 hPa 0.9 m/s 3.7° 999.0 hPa 0.9 m/s 58.8 mm
22:00 1.4° 1000.5 hPa 1.1 m/s 58.8 mm 1.3° 1000.7 hPa 1.0 m/s 2.5° 998.4 hPa 1.7 m/s 58.8 mm
 07:34     17:09    Daglengte: 9:35 Maandag 01 Feb
01:00 2.1° 998.9 hPa 1.1 m/s 58.8 mm 2.2° 999.1 hPa 1.1 m/s 1.4° 996.9 hPa 1.6 m/s 58.8 mm
04:00 0.1° 996.9 hPa 1.4 m/s 58.8 mm -0.0° 997.0 hPa 1.4 m/s 1.2° 995.2 hPa 1.5 m/s 58.8 mm
07:00 -2.0° 995.0 hPa 1.7 m/s 58.8 mm -2.3° 994.9 hPa 1.7 m/s 1.4° 996.2 hPa 1.4 m/s 58.8 mm
10:00 2.4° 995.1 hPa 1.1 m/s 58.8 mm 2.2° 995.0 hPa 1.2 m/s 3.9° 997.1 hPa 0.4 m/s 58.8 mm
13:00 6.7° 995.2 hPa 0.7 m/s 58.9 mm 6.8° 995.0 hPa 0.7 m/s 5.3° 997.7 hPa 0.2 m/s 58.9 mm
16:00 5.3° 997.2 hPa 1.0 m/s 60.0 mm 5.4° 997.0 hPa 1.0 m/s 3.8° 999.3 hPa 1.1 m/s 60.0 mm
19:00 4.1° 999.5 hPa 1.3 m/s 63.2 mm 4.1° 999.1 hPa 1.3 m/s 3.8° 1003.5 hPa 1.0 m/s 63.2 mm
22:00 4.2° 1001.8 hPa 1.0 m/s 67.0 mm 4.2° 1001.3 hPa 0.9 m/s 3.7° 1007.2 hPa 1.2 m/s 67.0 mm
 07:33     17:10    Daglengte: 9:37 Dinsdag 02 Feb
01:00 4.3° 1004.1 hPa 0.6 m/s 68.6 mm 4.4° 1003.5 hPa 0.6 m/s 3.5° 1010.3 hPa 1.1 m/s 68.6 mm
04:00 3.3° 1008.2 hPa 1.0 m/s 70.4 mm 3.4° 1007.8 hPa 1.1 m/s 3.0° 1013.0 hPa 0.9 m/s 70.4 mm
07:00 2.4° 1012.3 hPa 1.4 m/s 71.7 mm 2.3° 1012.0 hPa 1.5 m/s 3.0° 1015.6 hPa 0.8 m/s 71.7 mm
10:00 2.7° 1014.4 hPa 0.9 m/s 71.9 mm 2.5° 1014.2 hPa 0.9 m/s 4.2° 1016.5 hPa 0.5 m/s 71.9 mm
13:00 3.1° 1016.4 hPa 0.5 m/s 72.0 mm 2.8° 1016.5 hPa 0.4 m/s 5.9° 1015.1 hPa 1.8 m/s 72.0 mm
16:00 3.3° 1015.3 hPa 0.9 m/s 72.0 mm 3.2° 1015.4 hPa 0.9 m/s 4.9° 1014.2 hPa 1.9 m/s 72.0 mm
19:00 3.7° 1014.4 hPa 1.4 m/s 72.2 mm 3.6° 1014.3 hPa 1.3 m/s 5.0° 1014.9 hPa 2.0 m/s 72.2 mm
22:00 3.1° 1012.8 hPa 1.6 m/s 72.7 mm 2.9° 1012.5 hPa 1.5 m/s 5.5° 1015.0 hPa 2.8 m/s 72.7 mm
 07:32     17:12    Daglengte: 9:40 Woensdag 03 Feb
01:00 2.3° 1011.1 hPa 1.8 m/s 72.8 mm 2.1° 1010.8 hPa 1.7 m/s 4.7° 1014.0 hPa 2.9 m/s 72.8 mm
04:00 3.2° 1009.7 hPa 1.6 m/s 72.8 mm 3.0° 1009.3 hPa 1.5 m/s 5.4° 1013.1 hPa 2.6 m/s 72.8 mm
07:00 4.1° 1008.4 hPa 1.3 m/s 74.1 mm 4.0° 1007.9 hPa 1.3 m/s 5.4° 1013.4 hPa 1.2 m/s 74.1 mm
10:00 5.8° 1007.9 hPa 1.3 m/s 74.4 mm 5.8° 1007.5 hPa 1.3 m/s 5.8° 1013.3 hPa 1.6 m/s 74.4 mm
13:00 7.6° 1007.4 hPa 1.3 m/s 74.4 mm 7.6° 1007.0 hPa 1.3 m/s 7.8° 1011.3 hPa 1.2 m/s 74.4 mm
16:00 6.1° 1008.1 hPa 1.1 m/s 74.4 mm 6.0° 1007.8 hPa 1.1 m/s 7.1° 1010.9 hPa 1.2 m/s 74.4 mm
19:00 4.5° 1008.9 hPa 1.1 m/s 74.4 mm 4.5° 1008.6 hPa 0.9 m/s 4.7° 1011.7 hPa 3.0 m/s 74.4 mm
22:00 3.7° 1010.7 hPa 0.8 m/s 74.4 mm 3.8° 1010.6 hPa 0.7 m/s 3.6° 1012.2 hPa 2.9 m/s 74.4 mm
 07:30     17:13    Daglengte: 9:43 Donderdag 04 Feb
01:00 3.0° 1012.5 hPa 0.6 m/s 74.4 mm 3.0° 1012.6 hPa 0.4 m/s 3.0° 1011.8 hPa 3.1 m/s 74.4 mm
04:00 3.1° 1013.3 hPa 0.8 m/s 74.4 mm 3.1° 1013.5 hPa 0.6 m/s 2.6° 1010.7 hPa 3.4 m/s 74.4 mm
07:00 3.2° 1014.0 hPa 1.0 m/s 74.4 mm 3.2° 1014.4 hPa 0.8 m/s 3.4° 1010.2 hPa 3.5 m/s 74.4 mm
13:00 7.9° 1012.5 hPa 1.2 m/s 74.4 mm 7.8° 1013.0 hPa 1.1 m/s 8.6° 1006.6 hPa 2.9 m/s 74.4 mm
19:00 4.5° 1009.3 hPa 1.3 m/s 74.4 mm 4.3° 1009.6 hPa 1.1 m/s 6.6° 1006.0 hPa 3.3 m/s 74.4 mm
 07:29     17:15    Daglengte: 9:46 Vrijdag 05 Feb
01:00 2.4° 1007.0 hPa 2.3 m/s 74.4 mm 2.1° 1007.1 hPa 2.3 m/s 6.1° 1005.5 hPa 2.1 m/s 74.4 mm
07:00 4.0° 1008.0 hPa 1.9 m/s 74.4 mm 3.9° 1008.3 hPa 2.0 m/s 5.4° 1005.2 hPa 1.2 m/s 74.4 mm
13:00 13.5° 1009.3 hPa 0.5 m/s 74.4 mm 14.1° 1009.6 hPa 0.5 m/s 6.9° 1006.3 hPa 0.7 m/s 74.4 mm
19:00 4.6° 1010.6 hPa 1.0 m/s 83.0 mm 4.6° 1010.9 hPa 1.0 m/s 4.9° 1007.8 hPa 0.9 m/s 83.0 mm
 07:27     17:17    Daglengte: 9:50 Zaterdag 06 Feb
01:00 1.9° 1011.2 hPa 1.6 m/s 86.3 mm 1.6° 1011.5 hPa 1.7 m/s 5.1° 1007.6 hPa 0.7 m/s 86.3 mm
07:00 1.9° 1011.2 hPa 1.6 m/s 93.5 mm 1.6° 1011.6 hPa 1.7 m/s 4.7° 1006.5 hPa 0.6 m/s 93.5 mm
13:00 5.2° 1007.3 hPa 0.8 m/s 95.9 mm 5.2° 1007.3 hPa 0.8 m/s 95.9 mm
19:00 4.0° 1006.9 hPa 1.4 m/s 96.1 mm 4.0° 1006.9 hPa 1.4 m/s 96.1 mm
 07:26     17:18    Daglengte: 9:52 Zondag 07 Feb
01:00 2.8° 1004.2 hPa 1.3 m/s 96.2 mm 2.8° 1004.2 hPa 1.3 m/s 96.2 mm
07:00 -0.6° 1016.5 hPa 0.3 m/s 1.2 mm
13:00 2.5° 1016.1 hPa 0.9 m/s 0.6 mm
19:00 -0.2° 1017.4 hPa 0.5 m/s 0.3 mm
 07:24     17:20    Daglengte: 9:56 Maandag 08 Feb
01:00 -1.5° 1018.4 hPa 0.5 m/s 0.2 mm
07:00 -2.4° 1018.5 hPa 0.5 m/s 0.9 mm
13:00 1.6° 1017.8 hPa 0.9 m/s 0.7 mm
19:00 -1.3° 1019.9 hPa 0.2 m/s 0.6 mm
 07:23     17:21    Daglengte: 9:58 Dinsdag 09 Feb
01:00 -2.8° 1021.7 hPa 0.5 m/s 0.6 mm
07:00 -3.9° 1021.9 hPa 0.7 m/s 0.5 mm
13:00 1.4° 1020.5 hPa 0.8 m/s 0.4 mm
19:00 -1.8° 1022.0 hPa 0.3 m/s 0.5 mm
 07:21     17:23    Daglengte: 10:02 Woensdag 10 Feb
01:00 -3.1° 1022.7 hPa 1.0 m/s 0.7 mm
07:00 -3.6° 1022.3 hPa 1.1 m/s 1.3 mm
13:00 1.8° 1020.6 hPa 0.5 m/s 0.9 mm
19:00 -1.5° 1022.0 hPa 0.6 m/s 0.2 mm
 07:20     17:25    Daglengte: 10:05 Donderdag 11 Feb
01:00 -2.8° 1023.0 hPa 1.1 m/s 1.2 mm
07:00 -3.4° 1022.7 hPa 1.2 m/s 0.4 mm
13:00 2.0° 1020.8 hPa 0.8 m/s 0.6 mm
19:00 -1.7° 1022.2 hPa 0.8 m/s 0.6 mm
 07:18     17:26    Daglengte: 10:08 Vrijdag 12 Feb
01:00 -2.9° 1022.8 hPa 1.1 m/s 0.5 mm
07:00 -3.1° 1021.9 hPa 1.1 m/s 0.7 mm
FMI Hirlam - 7.5 km EWN WRFDA - 12 km DWD ICON - 7 km GFS - 25 km Basiskaart






























































Updatetijd (Europe/Brussels) Resolutie Lengte Stap
FMI Hirlam 06:15, 12:15, 18:15, 00:15 7.5 km 49h 1h
EWN WRFDA 03:30, 09:30, 15:30, 21:30 12 km 73h 1h
DWD ICON 05:15, 11:15, 17:15, 23:15 7 km 75h 1h
GFS 07:15, 13:15, 19:15, 01:15 25 km 237h 3h
30+ mm
25-30 mm
20-25 mm
15-20 mm
10-15 mm
6-10 mm
4-6 mm
2-4 mm
1-2 mm
0.5-1 mm
0.2-0.5 mm
0.1-0.2 mm
30+ mm
25-30 mm
20-25 mm
15-20 mm
10-15 mm
6-10 mm
4-6 mm
2-4 mm
1-2 mm
0.5-1 mm
0.2-0.5 mm
0.1-0.2 mm
Sneeuwval
Natte sneeuw
Hagel
Vorst
30+ mm
25-30 mm
20-25 mm
15-20 mm
10-15 mm
6-10 mm
4-6 mm
2-4 mm
1-2 mm
0.5-1 mm
0.2-0.5 mm
0.1-0.2 mm
Sneeuwval
Natte sneeuw
Hagel
Vorst
Onweer
50 mm
40 mm
30 mm
26 mm
22 mm
18 mm
14 mm
10 mm
9 mm
8 mm
7 mm
6 mm
5 mm
4.5 mm
4 mm
3.5 mm
3 mm
2.5 mm
2 mm
1.5 mm
1 mm
0.8 mm
0.6 mm
0.4 mm
0.2 mm
0.05 mm
35°
30°
25°
20°
15°
10°
-5°
-10°
-15°
-20°
-25°
-30°
-35°
33> m/s
29 m/s
25 m/s
21 m/s
17 m/s
14 m/s
11 m/s
8 m/s
5 m/s
3 m/s
0 m/s
2600 J/kg
2400 J/kg
2200 J/kg
2000 J/kg
1800 J/kg
1600 J/kg
1400 J/kg
1200 J/kg
1000 J/kg
800 J/kg
600 J/kg
400 J/kg
200 J/kg
70 dBZ
65 dBZ
60 dBZ
55 dBZ
50 dBZ
45 dBZ
40 dBZ
35 dBZ
30 dBZ
25 dBZ
20 dBZ
15 dBZ
10 dBZ
5 dBZ
-1 K
-2 K
-3 K
-4 K
-5 K
-6 K
-7 K
-8 K
-9 K
950 m²/s²
900 m²/s²
850 m²/s²
800 m²/s²
750 m²/s²
700 m²/s²
650 m²/s²
600 m²/s²
550 m²/s²
500 m²/s²
450 m²/s²
400 m²/s²
350 m²/s²
300 m²/s²
250 m²/s²
200 m²/s²
150 m²/s²
100 m²/s²
46 m/s
44 m/s
42 m/s
40 m/s
38 m/s
36 m/s
34 m/s
32 m/s
30 m/s
28 m/s
26 m/s
24 m/s
22 m/s
20 m/s
16 m/s
12 m/s
8 m/s
4 m/s
30 m/s
28 m/s
26 m/s
24 m/s
22 m/s
20 m/s
18 m/s
16 m/s
14 m/s
12 m/s
10 m/s
8 m/s
6 m/s
4 m/s
2 m/s
3.0
2.8
2.6
2.4
2.2
2.0
1.8
1.6
1.4
1.2
1.0
0.8
0.6
0.4
0.2
15
14
13
12
11
10
9
8
7
6
5
4
3
2
1
90%
80%
70%
60%
50%
40%
30%
20%
10%
42
40
38
36
34
32
30
28
26
24
22
20
18
16
14
12
90+ cm
80-90 cm
70-80 cm
60-70 cm
50-60 cm
40-50 cm
30-40 cm
20-30 cm
10-20 cm
1-10 cm
Sneeuwval
Natte sneeuw
Regen
>120 mm
115 mm
110 mm
105 mm
100 mm
95 mm
90 mm
85 mm
80 mm
75 mm
70 mm
65 mm
60 mm
55 mm
50 mm
45 mm
45 mm
40 mm
35 mm
30 mm
25 mm
20 mm
15 mm
10 mm
5 mm
0.1 mm
960 hPa
880 hPa
800 hPa
720 hPa
640 hPa
560 hPa
584 gpdm
568 gpdm
552 gpdm
536 gpdm
520 gpdm
504 gpdm
488 gpdm
Extreem zwaar Noodweer Kans op onweer
15% 15% 5% 50% 15%

Dag




Kaart






35°
30°
25°
20°
15°
10°